Starlink 30753

operational
NORAD ID: 58175 Int'l Des: 2023-167 Owner: SPXS Country: US Constellation: starlink
LEOCIRCULAR

About Starlink 30753

Description loading...

Live Position

Loading 3D Globe...

Upcoming Passes

Altitude History

Altitude vs Time

uPlot chart will show altitude changes over time

Two-Line Element Set

1 58175U 23167A 26034.22049575 .00000565 00000-0 56902-4 0 9996
2 58175 43.0032 332.9516 0001100 264.5846 95.4871 15.02538656125773
Epoch: Feb 3, 2026 • Age: 17 hours

Current Status

Altitude 570.5 km
Velocity 7.58 km/s
Sub-Earth Point -40.17°S, 103.81°E
Launch Date Oct 30, 2023
Age 2.2 years
Type internet

Technical Details

Classification Payload
Mass 730.00 kg
Dry Mass 700.00 kg
Total Mass 730.00 kg
Length 0.30 m
Diameter 4.10 m
Span 29.00 m
Shape Box + pan
Manufacturer SPXS
Bus Type Starlink V2M
Phase Status In Orbit
Owner/State SPXS/US

Large Constellations

Loading constellations...